Location: Unspecified
(0.0000°N, 0.0000°E)
Time: 04:04:24
(UTC+00:00)

QB50P2 - Pass Details

Date: 24 March 2026
Orbit: 517 x 528 km, 98.1° (Epoch: 20 April)

Event Time Altitude Azimuth Distance (km) Brightness Sun altitude
Rises 04:04:52 0° 39° (NE) 2,626 ? -30.4°
Reaches altitude 10° 04:07:29 10° 59° (ENE) 1,745 ? -29.7°
Maximum altitude 04:10:03 18° 102° (ESE) 1,333 ? -29.1°
Drops below altitude 10° 04:12:39 10° 146° (SE) 1,755 ? -28.4°
Sets 04:15:16 0° 165° (SSE) 2,649 ? -27.8°
